TimeEDT,TemperatureF,Dew PointF,Humidity,Sea Level PressureIn,VisibilityMPH,Wind Direction,Wind SpeedMPH,Gust SpeedMPH,PrecipitationIn,Events,Conditions,WindDirDegrees,DateUTC
12:51 AM,54.0,35.1,49,30.17,10.0,ESE,6.9,-,N/A,,Clear,110,2013-04-23 04:51:00
1:51 AM,54.0,32.0,43,30.17,10.0,ESE,10.4,-,N/A,,Clear,110,2013-04-23 05:51:00
2:51 AM,52.0,30.0,43,30.16,10.0,ESE,8.1,-,N/A,,Clear,120,2013-04-23 06:51:00
3:51 AM,50.0,28.9,44,30.15,10.0,ESE,8.1,-,N/A,,Clear,120,2013-04-23 07:51:00
4:51 AM,48.9,28.9,46,30.14,10.0,ESE,8.1,-,N/A,,Clear,120,2013-04-23 08:51:00
5:51 AM,48.0,28.9,48,30.14,10.0,ESE,6.9,-,N/A,,Partly Cloudy,120,2013-04-23 09:51:00
6:51 AM,46.9,30.0,52,30.12,10.0,ESE,6.9,-,N/A,,Mostly Cloudy,120,2013-04-23 10:51:00
7:51 AM,51.1,30.0,44,30.15,10.0,SE,8.1,-,N/A,,Overcast,140,2013-04-23 11:51:00
8:51 AM,54.0,30.9,41,30.15,10.0,ESE,6.9,-,N/A,,Mostly Cloudy,120,2013-04-23 12:51:00
9:51 AM,57.9,33.1,39,30.15,10.0,South,9.2,-,N/A,,Scattered Clouds,180,2013-04-23 13:51:00
10:51 AM,62.1,35.1,37,30.14,10.0,South,8.1,-,N/A,,Clear,170,2013-04-23 14:51:00
11:51 AM,64.9,37.9,37,30.11,10.0,South,9.2,-,N/A,,Clear,170,2013-04-23 15:51:00
12:51 PM,66.9,39.9,37,30.09,10.0,SSW,13.8,18.4,N/A,,Mostly Cloudy,210,2013-04-23 16:51:00
1:51 PM,70.0,42.1,36,30.05,10.0,SSW,11.5,-,N/A,,Mostly Cloudy,200,2013-04-23 17:51:00
2:51 PM,72.0,41.0,33,30.03,10.0,SW,16.1,25.3,N/A,,Mostly Cloudy,230,2013-04-23 18:51:00
3:51 PM,72.0,41.0,33,30.01,10.0,SSW,15.0,24.2,N/A,,Partly Cloudy,200,2013-04-23 19:51:00
4:51 PM,72.0,43.0,35,29.99,10.0,SW,17.3,23.0,N/A,,Overcast,220,2013-04-23 20:51:00
5:51 PM,71.1,44.1,38,29.97,10.0,SSW,15.0,23.0,N/A,,Overcast,210,2013-04-23 21:51:00
6:51 PM,70.0,46.0,42,29.95,10.0,SSW,10.4,-,N/A,,Mostly Cloudy,200,2013-04-23 22:51:00
7:51 PM,69.1,45.0,42,29.94,10.0,SSW,11.5,-,N/A,,Mostly Cloudy,200,2013-04-23 23:51:00
8:51 PM,68.0,46.0,45,29.93,10.0,SSW,5.8,-,N/A,,Overcast,200,2013-04-24 00:51:00
9:51 PM,66.9,46.9,49,29.91,10.0,South,8.1,-,N/A,,Overcast,170,2013-04-24 01:51:00
10:51 PM,64.0,48.9,58,29.91,8.0,SSE,4.6,-,0.00,Rain,Light Rain,160,2013-04-24 02:51:00
11:51 PM,63.0,48.0,58,29.89,10.0,SSE,9.2,-,0.00,,Overcast,160,2013-04-24 03:51:00